Weather Roundup
Issued by NWS Chicago, IL

Home | Current Version | Previous Version | Text Only | Print | Product List | Glossary Off
Versions: 1 2 3 4 5 6 7 8 9 10 11 12 13 14 15 16 17 18 19 20 21 22 23 24 25 26 27 28 29 30 31 32 33 34 35 36 37 38 39 40 41 42 43 44 45 46 47 48 49 50

000
NZUS59 KLOT 241804
HRRLOT

CHICAGO AREA WEATHER ROUNDUP
NATIONAL WEATHER SERVICE CHICAGO/ROMEOVILLE IL
100 PM CDT WED MAY 24 2017

NOTE: "FAIR" INDICATES FEW OR NO CLOUDS BELOW 12,000 FEET WITH NO
SIGNIFICANT WEATHER AND/OR OBSTRUCTIONS TO VISIBILITY.

* THESE STATIONS ARE NOT UNDER NWS QUALITY CONTROL. THEY ALSO MAY NOT
  REPORT WEATHER SUCH AS PRECIPITATION OR FOG.

ILZ005-006-012>014-019>023-241900-
NORTHEAST ILLINOIS

CITY           SKY/WX    TMP DP  RH WIND       PRES   REMARKS
OHARE          CLOUDY    59  50  72 NE17      29.56S
6HR MIN TEMP:  54; 6HR MAX TEMP:  59; 6HR PCP: TRACE;

MIDWAY         CLOUDY    59  52  77 N14       29.55R
6HR MIN TEMP:  55; 6HR MAX TEMP:  59; 6HR PCP: TRACE;

AURORA         CLOUDY    60  53  77 N17G24    29.57S
6HR MIN TEMP:  55; 6HR MAX TEMP:  61;

LANSING*       CLOUDY    56  53  91 N8        29.55S
JOLIET*        CLOUDY    60  54  82 N10       29.55F
WAUKEGAN       CLOUDY    57  51  80 N10G23    29.57F
6HR MIN TEMP:  51; 6HR MAX TEMP:  57; 6HR PCP:  0.02;

DUPAGE AIRPORT CLOUDY    60  54  80 N15       29.55F
6HR MIN TEMP:  53; 6HR MAX TEMP:  60;

WHEELING       CLOUDY    57  51  80 NE16G25   29.58S
6HR MIN TEMP:  53; 6HR MAX TEMP:  58; 6HR PCP: TRACE;

KANKAKEE*      CLOUDY    61  54  77 N8        29.53F
MORRIS*        CLOUDY    60  54  79 N3        29.54F
LEWIS AIRPORT* CLOUDY    58  55  89 NE15      29.55F
NORTHERLY ISL    N/A     54  50  86 MISG        N/A
$$

WIZ051-052-058>065-066-070>072-241900-
SOUTHEAST WISCONSIN

CITY           SKY/WX    TMP DP  RH WIND       PRES   REMARKS
MILWAUKEE      CLOUDY    56  52  86 N17G23    29.60F
6HR MIN TEMP:  48; 6HR MAX TEMP:  56; 6HR PCP:  0.11;

KENOSHA*       CLOUDY    57  50  77 NE14G22   29.59F
RACINE*        CLOUDY    55  49  80 N18G24    29.61F
WAUKESHA       CLOUDY    55  52  88 NE10G16   29.62S
$$

INZ001>003-010>013-019-020-241900-
NORTHWEST INDIANA

CITY           SKY/WX    TMP DP  RH WIND       PRES   REMARKS
GARY*          CLOUDY    55  52  88 N12       29.55S
MICHIGAN CITY* NOT AVBL
RENSSELAER*    NOT AVBL
VALPARAISO     PTSUNNY   64  56  75 NW9       29.51F
$$

LMZ740>746-241900-
SOUTHERN LAKE MICHIGAN

STATION/POSITION TIME  SKY/WX   TEMP WIND        PRES    VSBY
                                AIR  DIR/SP/G
                 (UTC)          (F)  (DEG/KT/KT) (MB)    (MI)
HARRISON CRIB    1740            52  360/ 20/ 22   N/A
BURNHAM HARBOR   1800            54  350/ 14/ 16   N/A
CALUMET HARBOR   1730            53  340/ 11/ 14 1000.6R
BURNS HARBOR     1740            53   30/  9/ 11 1000.7F
MICHIGAN CITY    1740            53  360/ 11/ 12   N/A
$$

ABBREVIATIONS USED IN REMARKS
   TC - TEMPERATURE IN CELSIUS
  WCI - WIND CHILL INDEX
   HX - HEAT INDEX
  VSB - VISIBILITY
$$



USA.gov is the U.S. government's official web portal to all federal, state and local government web resources and services.